When you browse on this site, cookies collect data to enhance your experience and personalize the content and advertising you see.
Visit our Privacy Policy to learn more. By continuing to use the site, you agree to this use of cookies and data.
  • En España
  • Lista de países
  • Para 7 días
  • Temperatura del agua
  • Mapa Satelital
  • El tiempo en el mapa
  • Informadores
  • user-avatar
    Iniciar sesión

    Tiempo cada hora Nagpur

    Hoy, 20 Abril, Sábado

    Tiempo Temperatura Precipitaciones Viento Presión Humedad
    00:00 +34°C° 0 mm 3 mps 729 mmHg 22%
    01:00 +34°C° 0 mm 2 mps 729 mmHg 23%
    02:00 +32°C° 0 mm 2 mps 729 mmHg 24%
    03:00 +32°C° 0 mm 2 mps 729 mmHg 27%
    04:00 +32°C° 0 mm 2 mps 729 mmHg 30%
    05:00 +31°C° 0 mm 1 mps 729 mmHg 36%
    06:00 +32°C° 0 mm 1 mps 729 mmHg 36%
    07:00 +33°C° 0 mm 1 mps 730 mmHg 36%
    08:00 +34°C° 0 mm 1 mps 730 mmHg 36%
    09:00 +35°C° 0 mm 1 mps 730 mmHg 32%
    10:00 +38°C° 0 mm 2 mps 730 mmHg 27%
    11:00 +39°C° 0 mm 2 mps 730 mmHg 23%
    12:00 +40°C° 0 mm 2 mps 729 mmHg 21%
    13:00 +40°C° 0 mm 2 mps 729 mmHg 20%
    14:00 +41°C° 0 mm 2 mps 728 mmHg 18%
    15:00 +41°C° 0 mm 2 mps 728 mmHg 19%
    16:00 +40°C° 0 mm 2 mps 728 mmHg 19%
    17:00 +38°C° 0 mm 0 mps 727 mmHg 17%
    18:00 +40°C° 0 mm 1 mps 727 mmHg 18%
    19:00 +40°C° 0 mm 1 mps 727 mmHg 18%
    20:00 +39°C° 0 mm 2 mps 727 mmHg 19%
    21:00 +39°C° 0 mm 2 mps 727 mmHg 21%
    22:00 +38°C° 0 mm 2 mps 727 mmHg 23%
    23:00 +38°C° 0 mm 2 mps 728 mmHg 25%

    Mañana, 21 Abril, Domingo

    Tiempo Temperatura Precipitaciones Viento Presión Humedad
    00:00 +36°C° 0 mm 1 mps 727 mmHg 26%
    01:00 +36°C° 0 mm 1 mps 727 mmHg 26%
    02:00 +35°C° 0 mm 1 mps 727 mmHg 27%
    03:00 +35°C° 0.1 mm 1 mps 727 mmHg 30%
    04:00 +35°C° 0.1 mm 2 mps 727 mmHg 33%
    05:00 +34°C° 0.1 mm 3 mps 727 mmHg 36%
    06:00 +35°C° 0 mm 3 mps 728 mmHg 37%
    07:00 +36°C° 0 mm 3 mps 729 mmHg 37%
    08:00 +37°C° 0 mm 3 mps 729 mmHg 38%
    09:00 +38°C° 0 mm 3 mps 729 mmHg 34%
    10:00 +39°C° 0 mm 3 mps 729 mmHg 30%
    11:00 +42°C° 0 mm 3 mps 729 mmHg 26%
    12:00 +41°C° 0 mm 2 mps 728 mmHg 24%
    13:00 +41°C° 0 mm 2 mps 728 mmHg 22%
    14:00 +41°C° 0 mm 2 mps 727 mmHg 20%
    15:00 +41°C° 0 mm 2 mps 727 mmHg 17%
    16:00 +42°C° 0 mm 2 mps 726 mmHg 15%
    17:00 +43°C° 0 mm 3 mps 726 mmHg 13%
    18:00 +41°C° 0 mm 2 mps 726 mmHg 14%
    19:00 +40°C° 0 mm 2 mps 727 mmHg 14%
    20:00 +37°C° 0 mm 1 mps 727 mmHg 15%
    21:00 +37°C° 0 mm 1 mps 727 mmHg 16%
    22:00 +36°C° 0 mm 1 mps 728 mmHg 17%
    23:00 +35°C° 0 mm 1 mps 728 mmHg 18%

    Pasado mañana, 22 Abril, Lunes

    Tiempo Temperatura Precipitaciones Viento Presión Humedad
    00:00 +35°C° 0 mm 2 mps 728 mmHg 27%
    01:00 +34°C° 0 mm 2 mps 728 mmHg 36%
    02:00 +33°C° 0 mm 3 mps 727 mmHg 45%
    03:00 +33°C° 0 mm 3 mps 728 mmHg 48%
    04:00 +31°C° 0 mm 2 mps 728 mmHg 50%
    05:00 +31°C° 0 mm 2 mps 728 mmHg 53%
    06:00 +32°C° 0 mm 2 mps 729 mmHg 50%
    07:00 +34°C° 0 mm 3 mps 729 mmHg 47%
    08:00 +35°C° 0 mm 3 mps 730 mmHg 44%
    09:00 +36°C° 0 mm 2 mps 730 mmHg 37%
    10:00 +38°C° 0 mm 2 mps 730 mmHg 30%
    11:00 +40°C° 0 mm 1 mps 730 mmHg 23%
    12:00 +41°C° 0 mm 1 mps 729 mmHg 20%
    13:00 +42°C° 0 mm 1 mps 729 mmHg 17%
    14:00 +43°C° 0 mm 1 mps 728 mmHg 14%
    15:00 +42°C° 0 mm 1 mps 728 mmHg 13%
    16:00 +42°C° 0 mm 1 mps 728 mmHg 12%
    17:00 +42°C° 0 mm 1 mps 727 mmHg 11%
    18:00 +41°C° 0 mm 1 mps 728 mmHg 12%
    19:00 +41°C° 0 mm 1 mps 728 mmHg 12%
    20:00 +40°C° 0 mm 1 mps 729 mmHg 13%
    21:00 +39°C° 0 mm 1 mps 729 mmHg 15%
    22:00 +37°C° 0 mm 1 mps 729 mmHg 16%
    23:00 +36°C° 0 mm 1 mps 729 mmHg 18%

    23 Abril, Martes

    Tiempo Temperatura Precipitaciones Viento Presión Humedad
    00:00 +36°C° 0 mm 1 mps 729 mmHg 20%
    01:00 +35°C° 0 mm 1 mps 728 mmHg 21%
    02:00 +34°C° 0 mm 1 mps 728 mmHg 23%
    03:00 +34°C° 0 mm 1 mps 728 mmHg 25%
    04:00 +33°C° 0 mm 1 mps 728 mmHg 27%
    05:00 +33°C° 0 mm 1 mps 728 mmHg 29%
    06:00 +34°C° 0 mm 1 mps 729 mmHg 28%
    07:00 +37°C° 0 mm 2 mps 730 mmHg 27%
    08:00 +38°C° 0 mm 2 mps 731 mmHg 26%
    09:00 +40°C° 0 mm 2 mps 731 mmHg 22%
    10:00 +41°C° 0 mm 2 mps 730 mmHg 18%
    11:00 +43°C° 0 mm 1 mps 730 mmHg 14%
    12:00 +43°C° 0 mm 1 mps 730 mmHg 12%
    13:00 +45°C° 0 mm 2 mps 729 mmHg 11%
    14:00 +45°C° 0 mm 2 mps 728 mmHg 10%
    15:00 +45°C° 0 mm 2 mps 728 mmHg 10%
    16:00 +45°C° 0 mm 2 mps 728 mmHg 10%
    17:00 +43°C° 0 mm 2 mps 728 mmHg 10%
    18:00 +42°C° 0 mm 2 mps 728 mmHg 11%
    19:00 +41°C° 0 mm 2 mps 729 mmHg 12%
    20:00 +40°C° 0 mm 2 mps 729 mmHg 13%
    21:00 +40°C° 0 mm 2 mps 729 mmHg 14%
    22:00 +39°C° 0 mm 2 mps 729 mmHg 15%
    23:00 +39°C° 0 mm 2 mps 729 mmHg 16%

    24 Abril, Miércoles

    Tiempo Temperatura Precipitaciones Viento Presión Humedad
    00:00 +39°C° 0 mm 2 mps 729 mmHg 16%
    01:00 +38°C° 0 mm 2 mps 729 mmHg 17%
    02:00 +38°C° 0 mm 2 mps 728 mmHg 17%
    03:00 +37°C° 0 mm 2 mps 728 mmHg 18%
    04:00 +37°C° 0 mm 2 mps 729 mmHg 19%
    05:00 +35°C° 0 mm 1 mps 729 mmHg 20%
    06:00 +37°C° 0 mm 2 mps 730 mmHg 19%
    07:00 +38°C° 0 mm 2 mps 730 mmHg 18%
    08:00 +39°C° 0 mm 3 mps 731 mmHg 18%
    09:00 +42°C° 0 mm 3 mps 731 mmHg 16%
    10:00 +43°C° 0 mm 3 mps 731 mmHg 14%
    11:00 +45°C° 0 mm 3 mps 731 mmHg 12%
    12:00 +45°C° 0 mm 2 mps 730 mmHg 11%
    13:00 +46°C° 0 mm 2 mps 729 mmHg 10%
    14:00 +45°C° 0 mm 1 mps 728 mmHg 9%
    15:00 +45°C° 0 mm 1 mps 728 mmHg 9%
    16:00 +45°C° 0 mm 1 mps 728 mmHg 8%
    17:00 +45°C° 0 mm 1 mps 727 mmHg 8%
    18:00 +44°C° 0 mm 1 mps 728 mmHg 9%
    19:00 +45°C° 0 mm 2 mps 728 mmHg 9%
    20:00 +43°C° 0 mm 2 mps 729 mmHg 10%
    21:00 +42°C° 0 mm 2 mps 729 mmHg 11%
    22:00 +41°C° 0 mm 2 mps 729 mmHg 12%
    23:00 +40°C° 0 mm 3 mps 729 mmHg 14%

    25 Abril, Jueves

    Tiempo Temperatura Precipitaciones Viento Presión Humedad
    00:00 +39°C° 0 mm 3 mps 728 mmHg 15%
    01:00 +39°C° 0 mm 3 mps 728 mmHg 16%
    02:00 +38°C° 0 mm 3 mps 727 mmHg 17%
    03:00 +37°C° 0 mm 3 mps 728 mmHg 20%
    04:00 +36°C° 0 mm 2 mps 728 mmHg 23%
    05:00 +35°C° 0 mm 2 mps 728 mmHg 26%
    06:00 +36°C° 0 mm 3 mps 729 mmHg 24%
    07:00 +38°C° 0 mm 4 mps 730 mmHg 23%
    08:00 +40°C° 0 mm 5 mps 730 mmHg 21%
    09:00 +42°C° 0 mm 5 mps 730 mmHg 18%
    10:00 +44°C° 0 mm 4 mps 730 mmHg 15%
    11:00 +47°C° 0 mm 4 mps 730 mmHg 12%
    12:00 +46°C° 0 mm 3 mps 729 mmHg 11%
    13:00 +46°C° 0 mm 1 mps 728 mmHg 10%
    14:00 +44°C° 0 mm 0 mps 727 mmHg 9%
    15:00 +46°C° 0 mm 1 mps 727 mmHg 9%
    16:00 +46°C° 0 mm 1 mps 727 mmHg 9%
    17:00 +47°C° 0 mm 2 mps 727 mmHg 9%
    18:00 +45°C° 0 mm 2 mps 727 mmHg 10%
    19:00 +44°C° 0 mm 3 mps 728 mmHg 11%
    20:00 +43°C° 0 mm 3 mps 728 mmHg 12%
    21:00 +43°C° 0 mm 3 mps 728 mmHg 13%
    22:00 +41°C° 0 mm 2 mps 728 mmHg 13%
    23:00 +41°C° 0 mm 2 mps 728 mmHg 14%
    Mostrar más